Port Isabel, TX

9:52 PM CST on December 09, 2016 (GMT -0600)
Port Isabel-Cameron County

Weather History for KPIL - October, 2012

Change the Weather History Date:

Friday, October 12, 2012

  Actual Average (KBRO) Record (KBRO)
Temperature  
Mean Temperature 84 °F -  
Max Temperature 89 °F 83 °F 94 °F (1897)
Min Temperature 78 °F 64 °F 51 °F (1994)
Cooling Degree Days 18    
Growing Degree Days 34 (Base 50)    
Moisture  
Dew Point 76 °F    
Average Humidity 79    
Maximum Humidity 90    
Minimum Humidity 65    
Precipitation  
Precipitation 0.31 in - - ()
Sea Level Pressure  
Sea Level Pressure 30.07 in    
Wind  
Wind Speed 11 mph (SE)    
Max Wind Speed 20 mph    
Max Gust Speed 30 mph    
Visibility 9 miles    
Events Rain    
Averages and records for this station are not official NWS values.
T = Trace of Precipitation, MM = Missing Value Source: NWS Daily Summary

Daily Weather History Graph

Daily Weather History Graph

Search for Another Location

Airport or City:

Trip Planner

Search our weather history database for the weather conditions in past years. The results will help you decide how hot, cold, wet, or windy it might be!

Date:

Astronomy

Oct. 12, 2012 Rise Set
Actual Time 7:27 AM CDT 7:03 PM CDT
Civil Twilight 7:03 AM CDT 7:27 PM CDT
Nautical Twilight 6:37 AM CDT 7:53 PM CDT
Astronomical Twilight 6:10 AM CDT 8:20 PM CDT
Moon 4:27 AM CDT (10/12) 5:01 PM CDT (10/12)
Length of Visible Light 12h 23m
Length of Day
11h 36m
Waning Crescent, 10% of the Moon is Illuminated
Oct 12
Waning Crescent
Oct 15
New
Oct 21
First Quarter
Oct 29
Full
Nov 6
Last Quarter

Hourly Weather History & Observations

Time (CDT) Temp. Heat Index Dew Point Humidity Pressure Visibility Wind Dir Wind Speed Gust Speed Precip Events Conditions
1:53 AM 80.1 °F 85.4 °F 75.9 °F 87% 30.07 in 10.0 mi ESE 9.2 mph - N/A   Clear
3:53 AM 80.1 °F 85.4 °F 75.9 °F 87% 30.06 in 10.0 mi ESE 8.1 mph - N/A   Partly Cloudy
4:53 AM 80.1 °F 85.4 °F 75.9 °F 87% 30.05 in 10.0 mi SSE 4.6 mph - 0.00 in   Overcast
5:14 AM 78.8 °F - 75.2 °F 89% 30.05 in 10.0 mi Calm Calm - N/A   Mostly Cloudy
5:28 AM 78.8 °F - 75.2 °F 89% 30.05 in 10.0 mi SE 4.6 mph - N/A   Mostly Cloudy
5:53 AM 79.0 °F - 75.9 °F 90% 30.06 in 9.0 mi SE 6.9 mph - N/A   Clear
6:53 AM 79.0 °F - 75.0 °F 88% 30.07 in 10.0 mi SE 6.9 mph - N/A   Clear
7:53 AM 80.1 °F 85.4 °F 75.9 °F 87% 30.09 in 8.0 mi SE 6.9 mph - N/A   Mostly Cloudy
9:53 AM 86.0 °F 96.0 °F 75.9 °F 72% 30.12 in 10.0 mi SE 13.8 mph - N/A   Partly Cloudy
10:25 AM 84.2 °F 94.1 °F 77.0 °F 79% 30.12 in 9.0 mi SE 11.5 mph - 0.00 in Rain Light Rain
10:53 AM 86.0 °F 96.9 °F 77.0 °F 74% 30.12 in 9.0 mi ESE 13.8 mph - 0.00 in   Scattered Clouds
11:18 AM 87.8 °F 99.7 °F 77.0 °F 70% 30.12 in 9.0 mi SE 16.1 mph 19.6 mph N/A   Scattered Clouds
11:53 AM 88.0 °F 98.5 °F 75.9 °F 67% 30.11 in 10.0 mi SE 15.0 mph - N/A   Partly Cloudy
12:53 PM 87.1 °F 97.3 °F 75.9 °F 69% 30.09 in 10.0 mi ESE 15.0 mph 24.2 mph N/A   Partly Cloudy
1:53 PM 89.1 °F 100.2 °F 75.9 °F 65% 30.06 in 10.0 mi ESE 18.4 mph 23.0 mph N/A   Partly Cloudy
2:53 PM 87.1 °F 98.8 °F 77.0 °F 72% 30.04 in 9.0 mi ESE 17.3 mph 24.2 mph N/A   Clear
3:53 PM 88.0 °F 98.5 °F 75.9 °F 67% 30.03 in 9.0 mi ESE 18.4 mph 25.3 mph N/A   Partly Cloudy
4:53 PM 87.1 °F 95.4 °F 73.9 °F 65% 30.04 in 10.0 mi SE 19.6 mph 24.2 mph N/A   Partly Cloudy
5:53 PM 84.9 °F 93.3 °F 75.0 °F 72% 30.03 in 10.0 mi SE 16.1 mph 23.0 mph N/A   Clear
6:53 PM 82.9 °F 89.4 °F 73.9 °F 74% 30.05 in 10.0 mi SE 13.8 mph - N/A   Clear
7:53 PM 82.9 °F 90.8 °F 75.9 °F 79% 30.05 in 10.0 mi SE 12.7 mph - N/A   Clear
9:53 PM 82.0 °F 89.4 °F 75.9 °F 82% 30.08 in 10.0 mi ESE 16.1 mph - N/A   Partly Cloudy
10:53 PM 82.9 °F 90.8 °F 75.9 °F 79% 30.09 in 10.0 mi ESE 13.8 mph - N/A   Mostly Cloudy
11:10 PM 82.4 °F 89.5 °F 75.2 °F 79% 30.08 in 10.0 mi ESE 13.8 mph - N/A   Overcast
11:40 PM 78.8 °F - 73.4 °F 83% 30.09 in 1.8 mi SSE 16.1 mph 29.9 mph 0.12 in Rain Heavy Rain
11:53 PM 79.0 °F - 75.9 °F 90% 30.09 in 2.5 mi ESE 15.0 mph 20.7 mph 0.31 in Rain Light Rain